Location: São Paulo
(23.5507°S, 46.6334°W)
Time: 17:38:59
(UTC-03:00)

A-11 Canister half - Pass Details

Date: 10 February 2026
Orbit: 1524 x 1683 km, 47.3° (Epoch: 13 March)

Event Time Altitude Azimuth Distance (km) Brightness Sun altitude
Exits shadow 03:54:52 19° 353° (N) 3,238 10.3 -25.4°
Maximum altitude 04:01:38 42° 52° (NE) 2,240 9.9 -24.1°
Drops below altitude 10° 04:10:55 10° 118° (ESE) 3,955 12.3 -22.2°
Sets 04:14:20 0° 125° (SE) 4,950 13.2 -21.5°
